Find Local Weather

World > North America > United States > Ohio

Enon Beach Recreation Park, Ohio Regional Weather

Enon Road and Interstate, Donnelsville, OH 45319
Lat: 39.92N, Lon: 83.95W
Wx Zone: OHZ053
Warning FLW WEATHER ALERT - (More Info. Click Here) Warning
Feedback
Expires:201808150600;;082915
ASUS41 KCLE 150512
RWRCLE
OHIO REGIONAL WEATHER ROUNDUP
NATIONAL WEATHER SERVICE WILMINGTON, OH
100 AM EDT WED AUG 15 2018

NOTE: "FAIR" INDICATES FEW OR NO CLOUDS BELOW 12,000 FEET WITH NO
SIGNIFICANT WEATHER AND/OR OBSTRUCTIONS TO VISIBILITY.


OHZ042-051>053-060>062-070>072-077>081-150600-
  SOUTHWEST OHIO
  
CITY           SKY/WX    TMP DP  RH WIND       PRES   REMARKS
CINC-COVINGTON MOCLDY    72  68  87 S3        30.03F                  
CINC-LUNKEN    FAIR      69  69 100 CALM      30.02F                  
HAMILTON       FAIR      68  66  93 CALM      30.03S                  
DAYTON         CLOUDY    71  65  81 W5        30.04S                  
WRIGHT-PAT AFB FAIR      70  65  86 CALM      30.03R                  
DAYTON GENERAL FAIR      74  65  73 CALM      30.03S                  
WILMINGTON     FAIR      68  68 100 CALM      30.04S                  
$$


SKY/WX - Weather  TMP - Temperature  DP - Dewpoint  RH - Relative Humidity
WIND - Wind Direction/Speed PRES - Barometric Pressure